EW6612 Weather Reports


time (UTC)temp
C
wind
direction
speed
KPH
gust
KPH
rain 1hr
cm
rain 24hr
cm
rain mn
cm
humidity
%
barometer
mb
20200921164041 21 355 4.8 8.0 0.00 0.03 0.03 72 1019.7
20200921163042 21 336 6.4 9.7 0.00 0.03 0.03 72 1019.8
20200921162037 21 299 6.4 14.5 0.00 0.03 0.03 73 1019.8
20200921161041 21 327 6.4 14.5 0.00 0.03 0.03 75 1019.8
20200921160052 21 300 6.4 11.3 0.00 0.03 0.03 75 1019.9
20200921155036 21 318 9.7 16.1 0.00 0.03 0.03 74 1020.0
20200921154036 21 321 11.3 19.3 0.00 0.03 0.03 73 1020.2
20200921153034 21 296 8.0 19.3 0.00 0.03 0.03 72 1020.3
20200921152041 22 307 8.0 16.1 0.00 0.03 0.03 70 1020.2
20200921151034 22 288 11.3 16.1 0.00 0.03 0.03 66 1020.4
20200921150040 23 283 8.0 17.7 0.00 0.03 0.03 62 1020.2
20200921145034 23 283 6.4 17.7 0.00 0.03 0.03 60 1020.2
20200921144034 23 288 6.4 12.9 0.00 0.03 0.03 59 1020.1
20200921143030 24 232 8.0 14.5 0.00 0.03 0.03 57 1020.1
20200921142032 24 308 11.3 19.3 0.00 0.03 0.03 59 1020.2
20200921141035 24 307 11.3 17.7 0.00 0.03 0.03 56 1020.1
20200921140037 25 309 11.3 19.3 0.00 0.03 0.03 60 1020.1
20200921135024 24 282 11.3 19.3 0.00 0.03 0.03 62 1020.2
20200921134028 24 303 9.7 19.3 0.00 0.03 0.03 61 1020.2
20200921133043 24 331 9.7 17.7 0.00 0.03 0.03 63 1020.3
20200921132028 25 250 6.4 16.1 0.00 0.03 0.03 60 1020.3
20200921131026 25 328 8.0 17.7 0.00 0.03 0.03 59 1020.5
20200921130039 25 306 6.4 16.1 0.00 0.03 0.03 62 1020.5
20200921125022 24 305 9.7 16.1 0.00 0.03 0.03 62 1020.5
20200921124019 23 44 6.4 16.1 0.00 0.03 0.03 59 1020.5
20200921123021 23 343 8.0 19.3 0.00 0.03 0.03 60 1020.6
20200921122016 24 342 6.4 16.1 0.00 0.03 0.03 60 1020.7
20200921121019 23 86 4.8 12.9 0.00 0.03 0.03 61 1020.7
20200921120032 23 27 8.0 20.9 0.00 0.03 0.03 60 1020.7
20200921115005 23 5 6.4 16.1 0.00 0.03 0.03 65 1020.8
20200921113957 23 310 6.4 16.1 0.00 0.03 0.03 68 1020.9
20200921112959 22 327 6.4 12.9 0.00 0.03 0.03 67 1020.9
20200921111956 22 37 8.0 16.1 0.00 0.03 0.03 70 1021.1
20200921110956 22 45 4.8 14.5 0.00 0.03 0.03 74 1021.0
20200921105953 22 0 6.4 14.5 0.00 0.03 0.03 76 1021.1
20200921104958 21 5 4.8 9.7 0.00 0.03 0.03 83 1021.1
20200921103950 20 355 4.8 8.0 0.00 0.03 0.03 90 1021.2
20200921102953 20 46 3.2 11.3 0.00 0.03 0.03 94 1021.3
20200921101939 19 48 3.2 9.7 0.00 0.03 0.03 94 1021.3
20200921100947 18 34 3.2 8.0 0.03 0.03 0.03 95 1021.3
20200921095945 18 103 3.2 6.4 0.03 0.03 0.03 95 1021.4
20200921094945 18 65 1.6 4.8 0.03 0.03 0.03 95 1021.4
20200921093941 18 113 0.0 3.2 0.03 0.03 0.03 95 1021.4
20200921092942 17 111 1.6 4.8 0.03 0.03 0.03 95 1021.3
20200921091940 17 171 1.6 8.0 0.03 0.03 0.03 95 1021.3
20200921090943 16 171 1.6 6.4 0.00 0.00 0.00 95 1021.3
20200921085953 16 155 1.6 6.4 0.00 0.00 0.00 95 1021.3
20200921084950 16 118 1.6 4.8 0.00 0.00 0.00 95 1021.2
20200921083938 16 118 1.6 3.2 0.00 0.00 0.00 95 1021.2
20200921082942 16 118 1.6 3.2 0.00 0.00 0.00 95 1021.2
20200921081932 16 121 1.6 4.8 0.00 0.00 0.00 95 1021.2
20200921080935 16 28 1.6 3.2 0.00 0.00 0.00 95 1021.2
20200921075924 16 24 0.0 3.2 0.00 0.00 0.00 95 1021.2
20200921074925 16 24 0.0 3.2 0.00 0.00 0.00 95 1021.2
20200921073920 16 24 0.0 1.6 0.00 0.00 0.00 95 1021.1
20200921072923 15 24 0.0 1.6 0.00 0.00 0.00 95 1021.1
20200921071914 15 72 0.0 0.0 0.00 0.00 0.00 95 1021.0
20200921070854 15 72 0.0 0.0 0.00 0.00 0.00 95 1020.9
20200921065859 15 73 0.0 0.0 0.00 0.00 0.00 95 1020.9
20200921064856 15 73 0.0 0.0 0.00 0.00 0.00 95 1020.8
20200921063840 15 73 0.0 0.0 0.00 0.00 0.00 95 1020.7
20200921062832 15 73 0.0 0.0 0.00 0.00 0.00 95 1020.7
20200921061818 15 73 1.6 3.2 0.00 0.00 0.00 95 1020.5
20200921060816 15 73 0.0 0.0 0.00 0.00 0.00 95 1020.4
20200921055756 15 73 0.0 0.0 0.00 0.00 0.00 95 1020.3
20200921054757 15 73 0.0 0.0 0.00 0.00 0.00 95 1020.2
20200921053754 15 73 0.0 0.0 0.00 0.00 0.00 95 1020.2
20200921052745 15 73 0.0 0.0 0.00 0.00 0.00 95 1020.1
20200921051741 15 73 0.0 0.0 0.00 0.00 0.00 95 1020.1
20200921050729 15 73 0.0 0.0 0.00 0.00 0.00 94 1020.1
20200921045721 15 73 0.0 0.0 0.00 0.00 0.00 94 1020.1
20200921044714 15 73 0.0 0.0 0.00 0.00 0.00 94 1020.2
20200921043639 15 73 0.0 0.0 0.00 0.00 0.00 94 1020.2
20200921042638 15 73 0.0 0.0 0.00 0.03 0.00 94 1020.2
20200921041629 15 73 0.0 0.0 0.00 0.05 0.00 94 1020.2
20200921040622 15 73 0.0 0.0 0.00 0.05 0.00 94 1020.1
20200921035616 15 73 0.0 0.0 0.00 0.05 0.00 94 1020.1
20200921034607 15 73 0.0 0.0 0.00 0.05 0.00 94 1020.1
20200921033556 15 73 0.0 0.0 0.00 0.05 0.00 94 1020.1
20200921032559 15 73 0.0 0.0 0.00 0.05 0.00 94 1020.1
20200921031544 15 73 0.0 0.0 0.00 0.05 0.00 94 1020.0
20200921030536 15 73 0.0 0.0 0.00 0.05 0.00 94 1020.1
20200921025534 15 73 0.0 0.0 0.00 0.05 0.00 94 1020.1
20200921024533 15 73 0.0 0.0 0.00 0.05 0.00 94 1020.2
20200921023529 15 73 0.0 0.0 0.00 0.05 0.00 94 1020.3
20200921022519 15 73 0.0 0.0 0.00 0.05 0.00 94 1020.4
20200921021514 15 73 0.0 0.0 0.00 0.05 0.00 94 1020.4
20200921020516 15 73 0.0 0.0 0.00 0.05 0.00 94 1020.5
20200921015458 15 73 0.0 0.0 0.00 0.05 0.00 94 1020.6
20200921014441 14 73 0.0 0.0 0.00 0.05 0.00 94 1020.5
20200921013447 15 73 0.0 0.0 0.00 0.05 0.00 94 1020.5
20200921012430 15 73 0.0 0.0 0.00 0.05 0.00 94 1020.6
20200921011424 15 73 0.0 0.0 0.00 0.05 0.00 94 1020.7
20200921010416 15 73 0.0 0.0 0.00 0.05 0.00 94 1020.8
20200921005410 15 73 0.0 0.0 0.00 0.05 0.00 94 1020.7
20200921004357 15 73 0.0 0.0 0.00 0.05 0.00 94 1020.7
20200921003348 16 73 0.0 0.0 0.00 0.05 0.00 93 1020.7
20200921002343 16 73 0.0 0.0 0.00 0.05 0.00 93 1020.8
20200921001304 16 73 0.0 0.0 0.00 0.05 0.00 93 1021.0
20200921000310 16 73 0.0 0.0 0.00 0.05 0.00 93 1021.0
20200920235305 16 289 0.0 0.0 0.00 0.05 0.00 94 1021.0
20200920234251 16 289 0.0 0.0 0.00 0.05 0.00 93 1021.1
20200920233259 16 289 0.0 0.0 0.00 0.05 0.00 93 1021.0
20200920232238 16 289 0.0 0.0 0.00 0.05 0.00 93 1021.0
20200920231232 16 289 0.0 0.0 0.00 0.05 0.00 93 1021.0
20200920230220 17 289 0.0 0.0 0.00 0.05 0.00 93 1021.0
20200920225213 17 289 0.0 0.0 0.00 0.05 0.05 93 1020.9
20200920224215 17 289 0.0 0.0 0.00 0.05 0.05 93 1021.0
20200920223154 17 289 0.0 0.0 0.00 0.05 0.05 93 1020.9
20200920222159 17 289 0.0 0.0 0.00 0.05 0.05 93 1021.0
20200920221157 16 289 0.0 0.0 0.00 0.05 0.05 93 1021.0
20200920220144 16 289 0.0 0.0 0.00 0.05 0.05 93 1021.0
20200920215143 16 289 0.0 0.0 0.00 0.05 0.05 93 1021.0
20200920214127 16 289 0.0 0.0 0.00 0.05 0.05 92 1020.9
20200920213126 16 289 0.0 0.0 0.00 0.05 0.05 92 1021.1
20200920212114 16 289 0.0 0.0 0.00 0.10 0.05 92 1021.1
20200920211104 16 289 0.0 0.0 0.00 0.13 0.05 92 1021.2
20200920210102 16 289 0.0 0.0 0.00 0.15 0.05 91 1021.2
20200920205043 16 289 0.0 0.0 0.00 0.18 0.05 91 1021.2
20200920204034 17 289 0.0 0.0 0.00 0.18 0.05 90 1021.2
20200920203025 17 289 0.0 0.0 0.00 0.18 0.05 91 1021.1
20200920202015 17 289 0.0 3.2 0.00 0.18 0.05 90 1021.1
20200920201013 17 289 1.6 3.2 0.00 0.18 0.05 90 1020.9
20200920200008 18 289 1.6 3.2 0.00 0.18 0.05 89 1020.9
20200920194959 18 289 1.6 4.8 0.00 0.18 0.05 88 1020.8
20200920194006 18 289 3.2 4.8 0.00 0.18 0.05 88 1020.7
20200920192959 18 289 3.2 6.4 0.00 0.18 0.05 87 1020.7
20200920191958 19 298 3.2 4.8 0.00 0.18 0.05 86 1020.6
20200920190954 20 298 3.2 8.0 0.00 0.18 0.05 84 1020.5
20200920185956 20 300 4.8 11.3 0.00 0.18 0.05 83 1020.4
20200920185000 20 314 3.2 6.4 0.00 0.18 0.05 83 1020.3
20200920183950 21 314 4.8 8.0 0.00 0.18 0.05 82 1020.3
20200920182940 21 306 4.8 8.0 0.00 0.18 0.05 82 1020.3
20200920181943 21 317 4.8 11.3 0.00 0.18 0.05 81 1020.3
20200920180943 21 332 4.8 9.7 0.00 0.18 0.05 82 1020.3
20200920175933 21 325 4.8 8.0 0.00 0.18 0.05 81 1020.3
20200920174929 21 288 8.0 12.9 0.00 0.18 0.05 81 1020.2
20200920173942 21 308 6.4 11.3 0.00 0.18 0.05 81 1020.1
20200920172926 21 277 6.4 12.9 0.00 0.18 0.05 80 1020.1
20200920171925 21 246 8.0 12.9 0.00 0.18 0.05 79 1020.1
20200920170926 21 299 6.4 14.5 0.00 0.28 0.05 79 1020.0
20200920165913 22 321 8.0 16.1 0.00 0.41 0.05 78 1020.0
20200920164922 22 331 8.0 16.1 0.00 0.41 0.05 77 1020.0